"startDT [UTC]","vpos","CH4 [ppm]","stdev(CH4) [ppm]","CO2 [ppm]","stdev(CO2) [ppm]","H2O_reported [%]","stdev(H2O_reported)","CavityPressure [torr]","CavityTemp [C]","OutletValve","CH4_dry [ppm]","CO2_dry [ppm]","DasTemp [C]","EtalonTemp [C]","WarmBoxTemp [C]","MPVPosition","T_ECpre [C]","T_EC1 [C]","T_EC2 [C]","p_inlet [hPa]","p_in [hPa]","p_out [hPa]","T_inlet [C]","RH_inlet [%]","dwpt_inlet [C]","T_vent [C]","RH_vent [%]","dwpt_vent [C]","flow_vent [l min-1]","flow_inlet [l min-1]","dwpt_sample [C]","T_room [C]"
2015-02-19 00:00:00,0.0,1.97287,0.00034,407.649,0.030,0.0416,0.0014,139.998,45.000,34432.12692,1.97366,407.851,35.144,45.067,45.000,0.00,0.09,-272.69,-272.75,-8,976,-4,21.6,1.3,-34.2,22.0,1.4,-33.4,5.73,1.99,-16.7,28.0
2015-02-19 00:01:00,0.0,1.97277,0.00035,407.682,0.034,0.0414,0.0018,140.000,45.000,34431.80056,1.97357,407.885,35.136,45.067,45.000,0.00,0.09,-272.69,-272.75,-8,977,-4,21.7,1.3,-34.5,22.0,1.3,-33.6,5.73,1.95,-16.7,28.1
2015-02-19 00:02:00,0.0,1.97225,0.00044,407.699,0.044,0.0404,0.0013,140.000,45.000,34433.74454,1.97305,407.896,35.137,45.067,45.000,0.00,0.09,-272.69,-272.75,-8,977,-4,21.6,1.2,-34.7,22.0,1.3,-33.6,5.73,1.92,-16.7,28.1
2015-02-19 00:03:00,0.0,1.97271,0.00043,407.767,0.037,0.0393,0.0018,139.999,45.000,34429.85192,1.97349,407.959,35.128,45.067,45.000,0.00,0.09,-272.69,-272.75,-8,977,-4,21.7,1.2,-34.8,22.0,1.3,-34.0,5.73,1.91,-16.7,28.1
2015-02-19 00:04:00,0.0,1.97260,0.00044,407.745,0.025,0.0383,0.0014,139.997,45.000,34428.69714,1.97334,407.934,35.122,45.067,45.000,0.00,0.09,-272.69,-272.75,-8,976,-4,21.6,1.2,-35.0,22.0,1.3,-34.2,5.73,1.93,-16.7,28.0
2015-02-19 00:05:00,0.0,1.97266,0.00043,407.739,0.028,0.0385,0.0015,139.997,45.000,34429.18432,1.97339,407.926,35.104,45.067,45.000,0.00,0.09,-272.69,-272.75,-8,976,-4,21.6,1.2,-35.3,22.0,1.2,-34.4,5.73,1.97,-16.7,28.0
2015-02-19 00:06:00,0.0,1.97343,0.00052,407.721,0.032,0.0379,0.0014,140.000,45.000,34427.90063,1.97412,407.908,35.069,45.067,45.000,0.00,0.09,-272.70,-272.75,-8,976,-4,21.6,1.2,-35.4,22.0,1.2,-34.6,5.73,2.00,-16.7,28.0
2015-02-19 00:07:00,0.0,1.97606,0.00053,407.674,0.025,0.0380,0.0030,140.000,45.000,34428.68616,1.97672,407.860,35.080,45.067,45.000,0.00,0.09,-272.69,-272.75,-8,977,-4,21.7,1.2,-35.3,22.0,1.2,-34.6,5.73,2.01,-16.8,28.1
2015-02-19 00:08:00,0.0,1.97595,0.00049,407.626,0.023,0.0376,0.0020,140.002,45.000,34431.60726,1.97672,407.811,35.084,45.067,45.000,0.00,0.09,-272.69,-272.75,-8,976,-4,21.7,1.2,-35.1,22.0,1.2,-34.6,5.73,1.97,-16.7,28.1
2015-02-19 00:09:00,0.0,1.97584,0.00037,407.660,0.026,0.0368,0.0016,139.997,45.000,34428.70962,1.97653,407.839,35.078,45.067,45.000,0.00,0.09,-272.69,-272.75,-8,976,-4,21.6,1.1,-35.6,22.0,1.2,-34.9,5.73,1.93,-16.8,28.1
2015-02-19 00:10:00,0.0,1.97590,0.00042,407.673,0.033,0.0374,0.0020,139.998,45.000,34428.13383,1.97663,407.857,35.093,45.067,45.000,0.00,0.09,-272.69,-272.76,-8,977,-4,21.6,1.1,-35.6,22.0,1.2,-34.8,5.73,1.91,-16.8,28.0
2015-02-19 00:11:00,0.0,1.97561,0.00039,407.648,0.030,0.0363,0.0020,139.999,45.000,34428.02333,1.97633,407.826,35.073,45.067,45.000,0.00,0.09,-272.69,-272.75,-8,977,-4,21.7,1.1,-35.7,22.0,1.2,-35.1,5.73,1.92,-16.8,28.0
2015-02-19 00:12:00,0.0,1.97492,0.00028,407.613,0.036,0.0364,0.0021,140.002,45.000,34429.55499,1.97566,407.793,35.056,45.067,45.000,0.00,0.09,-272.69,-272.74,-8,977,-4,21.6,1.1,-35.7,22.0,1.2,-34.9,5.73,1.96,-16.8,28.0
2015-02-19 00:13:00,0.0,1.97432,0.00031,407.598,0.026,0.0365,0.0016,139.998,45.000,34426.76379,1.97503,407.776,35.049,45.067,45.000,0.00,0.09,-272.70,-272.75,-9,977,-4,21.6,1.1,-35.9,22.0,1.2,-35.1,5.73,2.00,-16.8,28.0
2015-02-19 00:14:00,0.0,1.97400,0.00047,407.591,0.039,0.0366,0.0019,140.002,45.000,34427.05967,1.97474,407.770,35.010,45.067,45.000,0.00,0.09,-272.69,-272.75,-8,977,-4,21.7,1.1,-35.8,22.0,1.2,-34.8,5.73,2.01,-16.8,28.1
2015-02-19 00:15:00,0.0,1.97380,0.00049,407.571,0.036,0.0366,0.0015,140.000,45.000,34429.33765,1.97451,407.750,35.000,45.067,45.000,0.00,0.09,-272.69,-272.74,-8,976,-4,21.7,1.1,-35.6,22.0,1.2,-35.0,5.73,1.98,-16.8,28.0
2015-02-19 00:16:00,0.0,1.97411,0.00044,407.591,0.037,0.0374,0.0022,140.001,45.000,34428.47338,1.97482,407.774,34.998,45.067,45.000,0.00,0.09,-272.69,-272.76,-8,977,-4,21.6,1.1,-35.5,22.0,1.2,-34.7,5.73,1.93,-16.8,28.0
2015-02-19 00:17:00,0.0,1.97432,0.00050,407.587,0.030,0.0373,0.0016,139.999,45.000,34427.44450,1.97503,407.770,34.993,45.067,45.000,0.00,0.09,-272.69,-272.76,-8,977,-4,21.7,1.1,-35.6,22.0,1.2,-34.7,5.73,1.91,-16.8,28.0
2015-02-19 00:18:00,0.0,1.97430,0.00033,407.598,0.038,0.0373,0.0017,140.002,45.000,34428.90362,1.97503,407.780,34.990,45.067,45.000,0.00,0.09,-272.68,-272.75,-8,977,-4,21.6,1.2,-35.4,22.0,1.2,-34.6,5.73,1.92,-16.8,27.9
2015-02-19 00:19:00,0.0,1.97396,0.00042,407.580,0.036,0.0371,0.0011,139.999,45.000,34428.48559,1.97473,407.762,34.997,45.067,45.000,0.00,0.09,-272.69,-272.75,-8,976,-4,21.6,1.1,-35.5,22.0,1.2,-34.7,5.73,1.96,-16.8,28.0
2015-02-19 00:20:00,0.0,1.97376,0.00029,407.558,0.031,0.0379,0.0018,140.001,45.000,34430.48642,1.97449,407.744,34.987,45.067,45.000,0.00,0.09,-272.70,-272.76,-8,977,-4,21.6,1.2,-35.4,22.0,1.2,-34.5,5.73,2.00,-16.8,28.1
2015-02-19 00:21:00,0.0,1.97363,0.00039,407.560,0.031,0.0386,0.0011,140.002,45.000,34432.53240,1.97436,407.748,34.949,45.067,45.000,0.00,0.09,-272.69,-272.75,-8,977,-4,21.6,1.2,-35.3,22.0,1.2,-34.5,5.73,2.01,-16.8,28.1
2015-02-19 00:22:00,0.0,1.97412,0.00037,407.551,0.034,0.0387,0.0020,140.001,45.000,34428.40193,1.97485,407.742,34.938,45.067,45.000,0.00,0.09,-272.69,-272.75,-8,977,-4,21.6,1.2,-35.0,22.0,1.2,-34.5,5.73,1.98,-16.9,28.0
2015-02-19 00:23:00,0.0,1.97508,0.00077,407.577,0.037,0.0388,0.0021,139.997,45.000,34425.67870,1.97579,407.765,34.934,45.067,45.000,0.00,0.09,-272.69,-272.76,-8,977,-4,21.6,1.2,-35.2,22.0,1.2,-34.4,5.73,1.94,-16.9,28.0
2015-02-19 00:24:00,0.0,1.97616,0.00047,407.616,0.029,0.0391,0.0012,140.001,45.000,34426.75390,1.97690,407.808,34.912,45.067,45.000,0.00,0.09,-272.69,-272.76,-8,977,-4,21.6,1.2,-35.0,22.0,1.3,-34.3,5.73,1.92,-16.9,28.0
2015-02-19 00:25:00,0.0,1.97600,0.00037,407.645,0.031,0.0392,0.0011,140.000,45.000,34426.12259,1.97674,407.837,34.909,45.067,45.000,0.00,0.09,-272.69,-272.74,-8,976,-4,21.6,1.2,-34.8,22.0,1.3,-34.3,5.73,1.91,-16.8,28.0
2015-02-19 00:26:00,0.0,1.97587,0.00039,407.639,0.058,0.0399,0.0015,139.999,45.000,34427.18675,1.97667,407.834,34.923,45.067,45.000,0.00,0.09,-272.69,-272.75,-8,976,-4,21.6,1.2,-34.8,22.0,1.3,-34.0,5.73,1.95,-16.7,28.0
2015-02-19 00:27:00,0.0,1.97603,0.00038,407.622,0.034,0.0403,0.0012,140.002,45.000,34425.18931,1.97681,407.819,34.935,45.067,45.000,0.00,0.09,-272.70,-272.75,-8,977,-4,21.6,1.3,-34.6,22.0,1.3,-34.0,5.73,1.99,-15.8,28.1
2015-02-19 00:28:00,0.0,1.97596,0.00034,407.638,0.027,0.0411,0.0015,140.003,45.000,34426.91771,1.97677,407.840,34.935,45.067,45.000,0.00,0.09,-272.70,-272.75,-8,977,-4,21.6,1.3,-34.4,22.0,1.3,-33.8,5.73,2.01,-15.9,28.0
2015-02-19 00:29:00,0.0,1.97623,0.00042,407.639,0.030,0.0419,0.0014,139.996,45.000,34424.25707,1.97701,407.844,34.932,45.067,45.000,0.00,0.09,-272.69,-272.75,-8,976,-4,21.6,1.3,-34.2,22.0,1.4,-33.5,5.73,1.99,-15.9,28.0
2015-02-19 00:30:00,0.0,1.97618,0.00035,407.635,0.035,0.0421,0.0014,140.002,45.000,34427.17767,1.97703,407.841,34.932,45.067,45.000,0.00,0.09,-272.69,-272.76,-8,976,-4,21.6,1.4,-33.8,22.0,1.4,-33.2,5.73,1.94,-16.0,27.9
2015-02-19 00:31:00,0.0,1.97601,0.00044,407.621,0.038,0.0444,0.0017,139.997,45.000,34425.63917,1.97686,407.838,34.935,45.067,45.000,0.00,0.09,-272.69,-272.75,-8,977,-4,21.6,1.4,-33.7,22.0,1.4,-33.0,5.73,1.92,-16.1,27.9
2015-02-19 00:32:00,0.0,1.97616,0.00045,407.627,0.039,0.0441,0.0016,139.999,45.000,34425.29971,1.97701,407.844,34.938,45.067,45.000,0.00,0.09,-272.68,-272.75,-8,977,-4,21.6,1.4,-33.6,22.0,1.4,-33.0,5.73,1.91,-16.2,28.0
2015-02-19 00:33:00,0.0,1.97601,0.00035,407.589,0.027,0.0441,0.0018,139.999,45.000,34426.81009,1.97687,407.804,34.941,45.067,45.000,0.00,0.09,-272.69,-272.75,-8,977,-4,21.6,1.4,-33.6,22.0,1.4,-33.0,5.73,1.95,-16.2,28.0
2015-02-19 00:34:00,0.0,1.97620,0.00028,407.623,0.025,0.0445,0.0018,139.999,45.000,34425.03744,1.97707,407.841,34.979,45.067,45.000,0.00,0.09,-272.69,-272.76,-8,977,-4,21.6,1.4,-33.6,22.0,1.4,-33.0,5.73,1.98,-16.3,28.0
2015-02-19 00:35:00,0.0,1.97613,0.00034,407.592,0.038,0.0441,0.0013,139.997,45.000,34424.73932,1.97698,407.808,34.998,45.067,45.000,0.00,0.09,-272.69,-272.75,-8,976,-4,21.6,1.4,-33.5,22.0,1.5,-32.6,5.73,2.01,-16.3,28.0
2015-02-19 00:36:00,0.0,1.97641,0.00034,407.625,0.032,0.0446,0.0019,140.000,45.000,34422.03578,1.97728,407.843,35.000,45.066,44.999,0.00,0.09,-272.70,-272.75,-8,976,-4,21.6,1.4,-33.3,22.0,1.5,-32.9,5.73,1.99,-16.4,27.9
2015-02-19 00:37:00,0.0,1.97612,0.00042,407.642,0.037,0.0459,0.0014,139.998,45.000,34424.34347,1.97703,407.866,35.003,45.066,44.999,0.00,0.09,-272.70,-272.75,-8,977,-4,21.6,1.4,-33.5,22.0,1.5,-32.7,5.73,1.95,-16.4,27.9
2015-02-19 00:38:00,0.0,1.97625,0.00032,407.644,0.039,0.0454,0.0017,139.997,45.000,34424.11302,1.97712,407.866,35.023,45.066,44.999,0.00,0.09,-272.69,-272.75,-8,977,-4,21.6,1.4,-33.4,22.0,1.5,-32.9,5.73,1.91,-16.4,27.9
2015-02-19 00:39:00,0.0,1.97637,0.00040,407.633,0.036,0.0450,0.0015,140.000,45.000,34424.80048,1.97723,407.854,35.057,45.066,44.999,0.00,0.09,-272.69,-272.75,-8,976,-4,21.6,1.4,-33.4,21.9,1.4,-33.1,5.73,1.91,-16.5,28.0
2015-02-19 00:40:00,0.0,1.97635,0.00040,407.601,0.035,0.0460,0.0012,139.998,45.000,34425.12337,1.97723,407.827,35.067,45.066,44.999,0.00,0.09,-272.70,-272.75,-8,976,-4,21.6,1.4,-33.2,22.0,1.4,-33.2,5.73,1.94,-16.5,28.0
2015-02-19 00:41:00,0.0,1.97636,0.00034,407.611,0.034,0.0454,0.0013,140.000,45.000,34424.31542,1.97728,407.834,35.065,45.066,44.999,0.00,0.09,-272.69,-272.75,-8,977,-4,21.6,1.4,-33.4,21.9,1.5,-32.8,5.73,1.98,-16.5,28.0
2015-02-19 00:42:00,0.0,1.97651,0.00044,407.607,0.026,0.0454,0.0012,139.999,45.000,34423.32353,1.97739,407.830,35.064,45.066,44.999,0.00,0.09,-272.69,-272.74,-8,976,-4,21.6,1.4,-33.5,21.9,1.5,-32.6,5.73,2.02,-16.5,28.0
2015-02-19 00:43:00,0.0,1.97637,0.00030,407.615,0.032,0.0461,0.0016,139.999,45.000,34424.81180,1.97729,407.841,35.065,45.067,45.000,0.00,0.09,-272.69,-272.75,-8,976,-4,21.6,1.4,-33.3,21.9,1.5,-32.7,5.73,1.99,-16.5,27.9
2015-02-19 00:44:00,0.0,1.97606,0.00031,407.556,0.028,0.0457,0.0015,140.001,45.000,34429.18217,1.97694,407.780,35.065,45.067,45.000,0.00,0.09,-272.69,-272.75,-8,977,-4,21.6,1.4,-33.2,21.9,1.5,-32.6,5.73,1.95,-16.6,27.9
2015-02-19 00:45:00,0.0,1.97619,0.00027,407.577,0.027,0.0461,0.0018,139.996,45.000,34426.20981,1.97707,407.803,35.059,45.067,45.000,0.00,0.09,-272.68,-272.75,-8,976,-4,21.6,1.4,-33.2,21.9,1.5,-32.5,5.73,1.91,-16.6,27.9
2015-02-19 00:46:00,0.0,1.97593,0.00058,407.578,0.033,0.0461,0.0011,140.002,45.000,34427.84479,1.97684,407.804,35.030,45.067,45.000,0.00,0.09,-272.69,-272.75,-8,976,-4,21.6,1.4,-33.2,21.9,1.5,-32.3,5.73,1.91,-16.6,28.0
2015-02-19 00:47:00,0.0,1.97531,0.00034,407.588,0.022,0.0466,0.0016,139.999,45.000,34425.54191,1.97624,407.817,35.042,45.067,45.000,0.00,0.09,-272.69,-272.75,-8,977,-4,21.6,1.5,-33.0,21.9,1.5,-32.5,5.73,1.94,-16.6,28.0
2015-02-19 00:48:00,0.0,1.97535,0.00026,407.572,0.015,0.0474,0.0022,139.999,45.000,34427.27066,1.97628,407.804,35.038,45.067,45.000,0.00,0.09,-272.69,-272.75,-8,977,-4,21.6,1.5,-32.9,21.9,1.6,-32.2,5.73,1.98,-16.6,28.0
2015-02-19 00:49:00,0.0,1.97544,0.00039,407.572,0.035,0.0480,0.0015,140.001,45.000,34428.47006,1.97636,407.806,35.028,45.067,45.000,0.00,0.09,-272.70,-272.75,-8,976,-4,21.6,1.5,-32.8,21.9,1.6,-32.2,5.73,2.01,-16.6,28.0
2015-02-19 00:50:00,0.0,1.97542,0.00039,407.583,0.035,0.0486,0.0018,139.999,45.000,34428.86717,1.97638,407.821,35.010,45.067,45.000,0.00,0.09,-272.70,-272.76,-8,976,-4,21.6,1.5,-32.6,21.9,1.6,-32.2,5.73,1.99,-16.7,27.9
2015-02-19 00:51:00,0.0,1.97542,0.00035,407.589,0.029,0.0478,0.0015,140.000,45.000,34429.17168,1.97634,407.824,35.000,45.067,45.000,0.00,0.09,-272.69,-272.75,-8,977,-4,21.6,1.5,-32.7,21.9,1.6,-32.0,5.73,1.96,-16.7,27.9
2015-02-19 00:52:00,0.0,1.97507,0.00042,407.598,0.032,0.0462,0.0022,139.998,45.000,34428.85727,1.97597,407.825,34.999,45.068,45.000,0.00,0.09,-272.69,-272.75,-8,976,-4,21.6,1.5,-33.0,21.9,1.6,-32.2,5.73,1.92,-16.7,27.9
2015-02-19 00:53:00,0.0,1.97557,0.00036,407.629,0.042,0.0432,0.0020,139.999,45.000,34425.15543,1.97639,407.840,34.998,45.067,45.000,0.00,0.09,-272.69,-272.75,-8,976,-4,21.6,1.4,-33.8,21.9,1.5,-32.7,5.73,1.91,-16.7,28.0
2015-02-19 00:54:00,0.0,1.97567,0.00031,407.658,0.031,0.0407,0.0015,140.001,45.000,34425.10718,1.97647,407.857,34.980,45.067,45.000,0.00,0.09,-272.69,-272.75,-9,977,-4,21.6,1.3,-34.3,21.9,1.4,-33.3,5.73,1.93,-16.7,28.0
2015-02-19 00:55:00,0.0,1.97545,0.00044,407.684,0.034,0.0399,0.0017,139.998,45.000,34422.59935,1.97623,407.879,34.986,45.067,45.000,0.00,0.09,-272.69,-272.75,-8,976,-4,21.6,1.2,-34.8,21.9,1.3,-33.9,5.73,1.98,-16.7,28.0
2015-02-19 00:56:00,0.0,1.97550,0.00042,407.695,0.031,0.0397,0.0022,140.000,45.000,34426.26398,1.97628,407.890,34.990,45.067,45.000,0.00,0.09,-272.69,-272.75,-8,976,-4,21.6,1.2,-34.9,21.9,1.3,-34.0,5.73,2.00,-16.7,28.0
2015-02-19 00:57:00,0.0,1.97545,0.00021,407.706,0.028,0.0409,0.0024,140.000,45.000,34426.69886,1.97625,407.906,34.964,45.067,45.000,0.00,0.09,-272.70,-272.76,-8,976,-4,21.6,1.3,-34.6,21.9,1.3,-33.8,5.73,1.99,-16.7,27.9
2015-02-19 00:58:00,0.0,1.97532,0.00034,407.694,0.029,0.0426,0.0020,140.000,45.000,34426.16546,1.97615,407.902,34.950,45.067,45.000,0.00,0.09,-272.69,-272.75,-8,976,-4,21.6,1.3,-34.3,21.9,1.4,-33.5,5.73,1.96,-16.8,27.9
2015-02-19 00:59:00,0.0,1.97500,0.00041,407.703,0.026,0.0428,0.0013,140.000,45.000,34426.63039,1.97585,407.912,34.939,45.067,45.000,0.00,0.09,-272.68,-272.75,-8,977,-4,21.6,1.3,-33.9,21.9,1.4,-33.4,5.73,1.92,-16.8,28.0
2015-02-19 01:00:00,0.0,1.97517,0.00059,407.707,0.034,0.0443,0.0019,139.999,45.000,34425.95415,1.97602,407.924,34.947,45.067,45.000,0.00,0.09,-272.69,-272.76,-8,976,-4,21.6,1.4,-33.8,21.9,1.4,-33.1,5.73,1.91,-16.8,28.0
2015-02-19 01:01:00,0.0,1.97493,0.00033,407.735,0.075,0.0426,0.0017,139.999,45.000,34427.78243,1.97578,407.943,34.976,45.067,45.000,0.00,0.09,-272.69,-272.76,-8,977,-4,21.6,1.3,-34.0,21.9,1.4,-33.2,5.73,1.93,-16.8,28.0
2015-02-19 01:02:00,0.0,1.97447,0.00035,407.954,0.047,0.0406,0.0021,140.002,45.000,34426.06257,1.97527,408.151,34.993,45.067,45.000,0.00,0.09,-272.69,-272.75,-8,976,-4,21.6,1.3,-34.4,21.9,1.3,-33.7,5.73,1.98,-16.8,28.0
2015-02-19 01:03:00,0.0,1.97447,0.00037,407.885,0.047,0.0401,0.0013,139.999,45.000,34424.97560,1.97522,408.082,34.985,45.067,45.000,0.00,0.09,-272.69,-272.75,-8,976,-4,21.6,1.2,-34.8,21.9,1.3,-34.0,5.73,2.01,-16.8,28.0
2015-02-19 01:04:00,0.0,1.97413,0.00042,407.891,0.034,0.0386,0.0014,139.997,45.000,34425.81099,1.97489,408.080,34.967,45.067,45.000,0.00,0.09,-272.70,-272.75,-8,976,-4,21.6,1.2,-35.2,21.9,1.3,-34.3,5.73,2.00,-16.8,28.0
2015-02-19 01:05:00,0.0,1.97437,0.00046,407.858,0.055,0.0370,0.0014,140.003,45.000,34426.89023,1.97510,408.041,34.941,45.067,45.000,0.00,0.09,-272.69,-272.75,-8,976,-4,21.6,1.1,-35.5,21.9,1.2,-34.8,5.73,1.96,-16.8,28.0
2015-02-19 01:06:00,0.0,1.97463,0.00036,407.780,0.066,0.0364,0.0011,139.998,45.000,34426.52554,1.97531,407.960,34.939,45.067,45.000,0.00,0.09,-272.69,-272.75,-8,976,-4,21.6,1.1,-35.7,21.9,1.2,-35.0,5.73,1.91,-16.8,28.0
2015-02-19 01:07:00,0.0,1.97463,0.00056,407.754,0.075,0.0370,0.0015,139.997,45.000,34425.78857,1.97536,407.933,34.938,45.067,45.000,0.00,0.09,-272.69,-272.75,-8,977,-4,21.6,1.1,-35.8,21.9,1.2,-35.1,5.73,1.90,-16.8,28.1
2015-02-19 01:08:00,0.0,1.97398,0.00061,407.984,0.040,0.0365,0.0021,140.002,45.000,34426.31760,1.97472,408.162,34.963,45.067,45.000,0.00,0.09,-272.69,-272.75,-8,977,-4,21.6,1.1,-35.8,21.9,1.1,-35.3,5.73,1.94,-16.8,28.0
2015-02-19 01:09:00,0.0,1.97313,0.00047,408.112,0.053,0.0368,0.0023,139.999,45.000,34426.50021,1.97385,408.288,34.956,45.067,45.000,0.00,0.09,-272.69,-272.75,-8,976,-4,21.6,1.1,-35.9,21.9,1.2,-35.0,5.73,1.98,-16.8,28.0
2015-02-19 01:10:00,0.0,1.97349,0.00045,408.086,0.043,0.0366,0.0014,139.999,45.000,34425.74835,1.97414,408.268,34.941,45.067,45.000,0.00,0.09,-272.69,-272.75,-8,976,-4,21.6,1.1,-35.8,21.9,1.2,-34.9,5.73,2.00,-16.9,28.0
2015-02-19 01:11:00,0.0,1.97402,0.00034,408.041,0.041,0.0371,0.0019,140.003,45.000,34425.27926,1.97477,408.225,34.939,45.067,45.000,0.00,0.09,-272.70,-272.75,-8,977,-4,21.6,1.1,-35.6,21.9,1.2,-34.9,5.73,2.00,-16.9,28.0
2015-02-19 01:12:00,0.0,1.97406,0.00030,407.979,0.040,0.0374,0.0014,139.998,45.000,34425.31809,1.97476,408.163,34.937,45.067,45.000,0.00,0.09,-272.69,-272.75,-8,977,-4,21.6,1.1,-35.4,21.9,1.2,-34.9,5.73,1.95,-16.9,28.0
2015-02-19 01:13:00,0.0,1.97412,0.00048,407.969,0.034,0.0368,0.0015,140.000,45.000,34425.56090,1.97482,408.150,34.929,45.067,45.000,0.00,0.09,-272.69,-272.75,-8,977,-4,21.6,1.1,-35.7,21.9,1.2,-34.7,5.73,1.91,-16.9,28.1
2015-02-19 01:14:00,0.0,1.97450,0.00054,407.961,0.058,0.0370,0.0015,139.999,45.000,34424.57617,1.97521,408.141,34.926,45.067,45.000,0.00,0.09,-272.69,-272.76,-8,977,-4,21.6,1.2,-35.4,22.0,1.2,-34.8,5.73,1.91,-16.9,28.1
2015-02-19 01:15:00,0.0,1.97517,0.00079,408.024,0.065,0.0368,0.0020,140.000,45.000,34427.03300,1.97583,408.205,34.933,45.067,45.000,0.00,0.09,-272.69,-272.75,-8,976,-4,21.6,1.1,-35.8,21.9,1.2,-35.2,5.73,1.95,-16.9,28.0
2015-02-19 01:16:00,0.0,1.97586,0.00048,408.074,0.075,0.0362,0.0014,139.998,45.000,34423.88382,1.97654,408.253,34.936,45.067,45.000,0.00,0.09,-272.69,-272.75,-8,977,-4,21.7,1.1,-35.7,22.0,1.2,-34.9,5.73,1.99,-16.9,28.0
2015-02-19 01:17:00,0.0,1.97747,0.00050,407.873,0.048,0.0371,0.0018,140.002,45.000,34425.52846,1.97816,408.054,34.932,45.067,45.000,0.00,0.09,-272.70,-272.76,-8,977,-4,21.6,1.1,-35.6,22.0,1.2,-35.0,5.73,2.01,-16.9,28.0
2015-02-19 01:18:00,0.0,1.97737,0.00059,407.909,0.060,0.0390,0.0019,139.999,45.000,34425.70111,1.97811,408.102,34.933,45.067,45.000,0.00,0.09,-272.70,-272.75,-8,976,-4,21.7,1.2,-35.3,22.0,1.2,-34.7,5.73,1.99,-16.9,28.1
2015-02-19 01:19:00,0.0,1.97765,0.00041,407.851,0.053,0.0389,0.0023,139.998,45.000,34424.16006,1.97841,408.043,34.938,45.067,45.000,0.00,0.09,-272.69,-272.74,-8,977,-4,21.7,1.2,-35.1,22.0,1.3,-34.3,5.73,1.94,-16.9,28.1
2015-02-19 01:20:00,0.0,1.97776,0.00058,407.812,0.029,0.0396,0.0012,139.999,45.000,34426.21979,1.97851,408.006,34.968,45.067,45.000,0.00,0.09,-272.69,-272.75,-8,977,-4,21.7,1.2,-35.0,22.0,1.3,-34.2,5.73,1.91,-16.9,28.1
2015-02-19 01:21:00,0.0,1.97838,0.00041,407.786,0.038,0.0400,0.0016,139.999,45.000,34427.94015,1.97919,407.980,35.000,45.067,45.000,0.00,0.09,-272.69,-272.75,-8,977,-4,21.6,1.2,-34.6,22.0,1.3,-33.8,5.73,1.92,-16.9,28.1
2015-02-19 01:22:00,0.0,1.97778,0.00030,407.890,0.045,0.0401,0.0020,140.000,45.000,34425.17043,1.97855,408.086,35.000,45.067,44.999,0.00,0.09,-272.69,-272.74,-8,977,-4,21.6,1.2,-34.7,22.0,1.3,-33.9,5.73,1.96,-16.9,28.0
2015-02-19 01:23:00,0.0,1.97795,0.00035,407.888,0.049,0.0402,0.0022,140.000,45.000,34425.96611,1.97875,408.085,34.990,45.067,45.000,0.00,0.09,-272.69,-272.75,-9,977,-4,21.6,1.3,-34.5,22.0,1.3,-33.9,5.73,2.00,-16.9,28.0
2015-02-19 01:24:00,0.0,1.97934,0.00050,407.771,0.039,0.0398,0.0019,140.001,45.000,34423.60308,1.98007,407.970,34.960,45.067,45.000,0.00,0.09,-272.70,-272.75,-8,977,-4,21.7,1.2,-34.7,22.0,1.3,-33.9,5.73,2.01,-16.9,28.1
2015-02-19 01:25:00,0.0,1.97839,0.00040,407.759,0.027,0.0398,0.0023,140.000,45.000,34424.25386,1.97916,407.954,34.938,45.067,45.000,0.00,0.09,-272.69,-272.75,-8,977,-4,21.7,1.2,-35.0,22.0,1.3,-34.0,5.73,1.97,-16.9,28.1
2015-02-19 01:26:00,0.0,1.97869,0.00036,407.784,0.042,0.0395,0.0017,140.000,45.000,34423.91202,1.97944,407.978,34.938,45.067,45.000,0.00,0.09,-272.69,-272.76,-8,977,-4,21.7,1.2,-34.9,22.0,1.3,-34.0,5.73,1.93,-16.9,28.1
2015-02-19 01:27:00,0.0,1.97849,0.00046,407.791,0.032,0.0398,0.0017,139.999,45.000,34424.92009,1.97926,407.986,34.934,45.067,45.000,0.00,0.09,-272.69,-272.76,-8,977,-4,21.7,1.2,-34.8,22.0,1.3,-34.1,5.73,1.91,-16.9,28.0
2015-02-19 01:28:00,0.0,1.97858,0.00037,407.836,0.035,0.0395,0.0016,140.001,45.000,34423.83774,1.97936,408.028,34.927,45.067,45.000,0.00,0.09,-272.69,-272.75,-8,977,-4,21.7,1.2,-34.8,22.0,1.3,-34.0,5.73,1.93,-17.0,28.0
2015-02-19 01:29:00,0.0,1.97854,0.00037,407.838,0.034,0.0406,0.0015,140.001,45.000,34424.27342,1.97936,408.036,34.932,45.067,45.000,0.00,0.09,-272.69,-272.75,-8,977,-4,21.7,1.2,-34.7,22.0,1.3,-34.1,5.73,1.97,-17.0,28.0
2015-02-19 01:30:00,0.0,1.97807,0.00046,407.801,0.035,0.0405,0.0019,139.999,45.000,34423.55301,1.97887,408.001,34.938,45.067,45.000,0.00,0.09,-272.70,-272.75,-8,977,-4,21.7,1.2,-34.6,22.0,1.3,-33.9,5.73,2.01,-17.0,28.1
2015-02-19 01:31:00,0.0,1.97807,0.00032,407.798,0.031,0.0419,0.0010,139.998,45.000,34424.67131,1.97885,408.003,34.944,45.067,45.000,0.00,0.09,-272.70,-272.75,-8,977,-4,21.7,1.3,-34.4,22.0,1.3,-33.7,5.73,2.00,-16.9,28.1
2015-02-19 01:32:00,0.0,1.97810,0.00048,407.819,0.028,0.0416,0.0017,140.001,45.000,34425.88967,1.97894,408.022,34.955,45.067,45.000,0.00,0.09,-272.69,-272.75,-8,977,-4,21.7,1.3,-34.4,22.0,1.3,-33.7,5.73,1.96,-17.0,28.1
2015-02-19 01:33:00,0.0,1.97825,0.00029,407.870,0.037,0.0412,0.0016,140.001,45.000,34425.06606,1.97903,408.072,34.960,45.067,45.000,0.00,0.09,-272.69,-272.75,-9,977,-4,21.7,1.3,-34.2,22.0,1.4,-33.5,5.73,1.92,-17.0,28.0
2015-02-19 01:34:00,0.0,1.97850,0.00043,407.838,0.037,0.0422,0.0028,140.000,45.000,34425.63975,1.97929,408.046,34.952,45.067,45.000,0.00,0.09,-272.70,-272.75,-8,977,-4,21.7,1.3,-34.2,22.0,1.3,-33.6,5.73,1.91,-17.0,28.0
2015-02-19 01:35:00,0.0,1.97899,0.00038,407.858,0.033,0.0428,0.0018,139.999,45.000,34424.40173,1.97982,408.068,34.948,45.067,45.000,0.00,0.09,-272.69,-272.75,-8,977,-4,21.7,1.3,-34.1,22.0,1.4,-33.4,5.73,1.93,-17.0,28.0
2015-02-19 01:36:00,0.0,1.97932,0.00035,407.851,0.035,0.0427,0.0016,140.000,45.000,34425.39209,1.98012,408.059,34.946,45.067,45.000,0.00,0.09,-272.69,-272.75,-8,977,-4,21.7,1.3,-33.9,22.0,1.4,-33.5,5.73,1.99,-17.0,28.1
2015-02-19 01:37:00,0.0,1.97931,0.00039,407.886,0.029,0.0429,0.0016,139.998,45.000,34425.29181,1.98016,408.099,34.960,45.067,45.000,0.00,0.09,-272.69,-272.75,-8,977,-4,21.7,1.3,-34.0,22.0,1.4,-33.2,5.73,2.01,-17.0,28.1
2015-02-19 01:38:00,0.0,1.97954,0.00036,407.860,0.030,0.0431,0.0017,140.001,45.000,34427.12801,1.98036,408.071,34.988,45.067,45.000,0.00,0.09,-272.70,-272.75,-8,977,-4,21.7,1.3,-34.1,22.0,1.4,-33.1,5.73,1.99,-17.0,28.1
2015-02-19 01:39:00,0.0,1.97920,0.00059,407.833,0.032,0.0431,0.0014,140.000,45.000,34425.47166,1.98005,408.045,34.971,45.067,45.000,0.00,0.09,-272.69,-272.75,-8,977,-4,21.7,1.3,-33.9,22.0,1.4,-33.3,5.73,1.94,-17.0,28.0
2015-02-19 01:40:00,0.0,1.98002,0.00037,407.827,0.024,0.0431,0.0016,140.000,45.000,34427.22446,1.98085,408.038,34.941,45.067,45.000,0.00,0.09,-272.69,-272.75,-8,977,-4,21.7,1.3,-34.1,22.0,1.4,-33.2,5.73,1.91,-17.0,28.0
2015-02-19 01:41:00,0.0,1.97986,0.00031,407.820,0.038,0.0427,0.0038,140.000,45.000,34426.95558,1.98069,408.028,34.938,45.067,45.000,0.00,0.09,-272.69,-272.76,-8,977,-4,21.7,1.3,-34.2,22.0,1.4,-33.5,5.73,1.91,-17.0,28.0
2015-02-19 01:42:00,0.0,1.98013,0.00029,407.822,0.032,0.0413,0.0013,139.997,45.000,34426.74600,1.98091,408.025,34.938,45.067,45.000,0.00,0.09,-272.69,-272.75,-9,977,-4,21.7,1.3,-34.4,22.0,1.3,-33.8,5.73,1.95,-17.0,28.1
2015-02-19 01:43:00,0.0,1.98060,0.00040,407.834,0.033,0.0414,0.0019,139.998,45.000,34426.23217,1.98140,408.038,34.949,45.067,45.000,0.00,0.09,-272.69,-272.75,-8,977,-4,21.7,1.2,-34.6,22.0,1.3,-33.8,5.73,2.00,-17.0,28.1
2015-02-19 01:44:00,0.0,1.98106,0.00044,407.846,0.033,0.0407,0.0019,139.999,45.000,34425.01328,1.98186,408.045,34.992,45.067,45.000,0.00,0.09,-272.70,-272.75,-8,977,-4,21.7,1.2,-34.6,22.0,1.3,-33.8,5.73,2.01,-17.0,28.1
2015-02-19 01:45:00,0.0,1.98112,0.00042,407.835,0.031,0.0405,0.0020,140.001,45.000,34423.53341,1.98188,408.034,35.013,45.067,45.000,0.00,0.09,-272.70,-272.75,-8,977,-4,21.7,1.2,-34.6,22.0,1.3,-34.1,5.73,1.98,-17.0,28.0
2015-02-19 01:46:00,0.0,1.98123,0.00041,407.840,0.032,0.0407,0.0017,140.002,45.000,34425.95531,1.98203,408.041,35.021,45.067,45.000,0.00,0.09,-272.69,-272.74,-8,977,-4,21.7,1.2,-34.8,22.0,1.3,-34.1,5.73,1.93,-17.0,28.0